| time (UTC) | temp C | wind direction | speed KPH | gust KPH | rain 1hr cm | rain 24hr cm | rain mn cm | humidity % | barometer mb |
| 20260504081709 | 21 | 269 | 3.2 | 9.7 | 0.00 | 0.00 | 0.00 | 41 | 997.8 |
| 20260504081209 | 21 | 221 | 6.4 | 12.9 | 0.00 | 0.00 | 0.00 | 41 | 997.8 |
| 20260504080708 | 21 | 174 | 3.2 | 11.3 | 0.00 | 0.00 | 0.00 | 42 | 997.7 |
| 20260504080208 | 21 | 241 | 11.3 | 12.9 | 0.00 | 0.00 | 0.00 | 41 | 997.6 |
| 20260504070200 | 19 | 242 | 3.2 | 11.3 | 0.00 | 0.00 | 0.00 | 46 | 997.5 |
| 20260504060153 | 15 | 143 | 1.6 | 8.0 | 0.00 | 0.00 | 0.00 | 57 | 997.5 |
| 20260504050648 | 12 | 144 | 12.9 | 12.9 | 0.00 | 0.00 | 0.00 | 59 | 997.3 |
| 20260504050148 | 12 | 140 | 9.7 | 12.9 | 0.00 | 0.00 | 0.00 | 59 | 997.3 |
| 20260504045647 | 12 | 127 | 8.0 | 12.9 | 0.00 | 0.00 | 0.00 | 59 | 997.3 |
| 20260504045147 | 12 | 98 | 4.8 | 8.0 | 0.00 | 0.00 | 0.00 | 60 | 997.2 |
| 20260504044646 | 12 | 124 | 8.0 | 11.3 | 0.00 | 0.00 | 0.00 | 58 | 997.3 |
| 20260504044146 | 13 | 140 | 11.3 | 12.9 | 0.00 | 0.00 | 0.00 | 56 | 997.2 |
| 20260504043645 | 13 | 134 | 9.7 | 12.9 | 0.00 | 0.00 | 0.00 | 54 | 997.1 |
| 20260504043144 | 13 | 127 | 9.7 | 11.3 | 0.00 | 0.00 | 0.00 | 54 | 997.1 |
| 20260504042644 | 13 | 109 | 8.0 | 9.7 | 0.00 | 0.00 | 0.00 | 55 | 997.3 |
| 20260504042143 | 13 | 103 | 6.4 | 9.7 | 0.00 | 0.00 | 0.00 | 55 | 997.3 |
| 20260504041642 | 13 | 119 | 4.8 | 8.0 | 0.00 | 0.00 | 0.00 | 53 | 997.4 |
| 20260504041141 | 13 | 89 | 1.6 | 3.2 | 0.00 | 0.00 | 0.00 | 53 | 997.3 |
| 20260504040641 | 13 | 94 | 3.2 | 3.2 | 0.00 | 0.00 | 0.00 | 52 | 997.2 |
| 20260504040140 | 13 | 117 | 1.6 | 4.8 | 0.00 | 0.00 | 0.00 | 51 | 997.3 |
| 20260504035640 | 13 | 163 | 1.6 | 1.6 | 0.00 | 0.00 | 0.00 | 51 | 997.2 |
| 20260504035140 | 13 | 163 | 0.0 | 0.0 | 0.00 | 0.00 | 0.00 | 53 | 997.2 |
| 20260504034639 | 13 | 313 | 0.0 | 1.6 | 0.00 | 0.00 | 0.00 | 53 | 997.3 |
| 20260504034138 | 13 | 326 | 4.8 | 8.0 | 0.00 | 0.00 | 0.00 | 53 | 997.3 |
| 20260504033638 | 13 | 138 | 0.0 | 0.0 | 0.00 | 0.00 | 0.00 | 53 | 997.2 |
| 20260504033137 | 13 | 160 | 1.6 | 3.2 | 0.00 | 0.00 | 0.00 | 52 | 997.1 |
| 20260504032637 | 13 | 181 | 0.0 | 3.2 | 0.00 | 0.00 | 0.00 | 52 | 997.0 |
| 20260504032136 | 13 | 149 | 4.8 | 8.0 | 0.00 | 0.00 | 0.00 | 52 | 996.7 |
| 20260504031636 | 13 | 198 | 1.6 | 3.2 | 0.00 | 0.00 | 0.00 | 52 | 997.0 |
| 20260504031136 | 13 | 140 | 0.0 | 8.0 | 0.00 | 0.00 | 0.00 | 52 | 996.8 |
| 20260504030635 | 13 | 154 | 9.7 | 14.5 | 0.00 | 0.00 | 0.00 | 52 | 996.4 |
| 20260504030135 | 13 | 144 | 11.3 | 16.1 | 0.00 | 0.00 | 0.00 | 52 | 996.5 |
| 20260504025635 | 13 | 170 | 8.0 | 16.1 | 0.00 | 0.00 | 0.00 | 53 | 996.5 |
| 20260504025134 | 13 | 177 | 9.7 | 14.5 | 0.00 | 0.00 | 0.00 | 54 | 996.3 |
| 20260504024633 | 13 | 132 | 9.7 | 16.1 | 0.00 | 0.00 | 0.00 | 53 | 996.4 |
| 20260504024133 | 13 | 144 | 11.3 | 17.7 | 0.00 | 0.00 | 0.00 | 53 | 996.4 |
| 20260504023633 | 13 | 162 | 11.3 | 17.7 | 0.00 | 0.00 | 0.00 | 52 | 996.4 |
| 20260504023132 | 13 | 151 | 12.9 | 20.9 | 0.00 | 0.00 | 0.00 | 52 | 996.2 |
| 20260504022631 | 13 | 136 | 17.7 | 17.7 | 0.00 | 0.00 | 0.00 | 52 | 996.4 |
| 20260504022131 | 13 | 144 | 14.5 | 17.7 | 0.00 | 0.00 | 0.00 | 52 | 996.4 |
| 20260504021621 | 13 | 162 | 14.5 | 20.9 | 0.00 | 0.00 | 0.00 | 51 | 996.5 |
| 20260504021120 | 14 | 149 | 12.9 | 16.1 | 0.00 | 0.00 | 0.00 | 51 | 996.6 |
| 20260504020610 | 14 | 145 | 12.9 | 16.1 | 0.00 | 0.00 | 0.00 | 50 | 996.4 |
| 20260504020110 | 14 | 164 | 14.5 | 16.1 | 0.00 | 0.00 | 0.00 | 49 | 996.5 |
| 20260504015559 | 15 | 158 | 11.3 | 16.1 | 0.00 | 0.00 | 0.00 | 49 | 996.4 |
| 20260504015059 | 15 | 166 | 14.5 | 14.5 | 0.00 | 0.00 | 0.00 | 48 | 996.6 |
| 20260504014548 | 15 | 159 | 11.3 | 14.5 | 0.00 | 0.00 | 0.00 | 47 | 996.4 |
| 20260504014047 | 15 | 188 | 11.3 | 20.9 | 0.00 | 0.00 | 0.00 | 46 | 996.4 |
| 20260504013537 | 15 | 149 | 16.1 | 24.1 | 0.00 | 0.00 | 0.00 | 46 | 996.5 |
| 20260504013037 | 15 | 161 | 20.9 | 25.7 | 0.00 | 0.00 | 0.00 | 46 | 996.4 |
| 20260504012526 | 16 | 173 | 14.5 | 25.7 | 0.00 | 0.00 | 0.00 | 45 | 996.4 |
| 20260504012026 | 16 | 156 | 19.3 | 25.7 | 0.00 | 0.00 | 0.00 | 45 | 996.3 |
| 20260504011525 | 16 | 153 | 19.3 | 24.1 | 0.00 | 0.00 | 0.00 | 45 | 996.2 |
| 20260504011014 | 16 | 157 | 17.7 | 22.5 | 0.00 | 0.00 | 0.00 | 45 | 996.3 |
| 20260504010514 | 16 | 171 | 16.1 | 20.9 | 0.00 | 0.00 | 0.00 | 45 | 996.4 |
| 20260504010002 | 16 | 162 | 9.7 | 24.1 | 0.00 | 0.00 | 0.00 | 44 | 996.6 |
| 20260504005502 | 16 | 162 | 17.7 | 27.4 | 0.00 | 0.00 | 0.00 | 44 | 996.5 |
| 20260504005002 | 16 | 177 | 19.3 | 24.1 | 0.00 | 0.00 | 0.00 | 44 | 996.5 |
| 20260504004501 | 16 | 192 | 17.7 | 29.0 | 0.00 | 0.00 | 0.00 | 45 | 996.6 |
| 20260504004000 | 16 | 152 | 19.3 | 25.7 | 0.00 | 0.00 | 0.00 | 45 | 996.5 |
| 20260504003459 | 16 | 161 | 14.5 | 25.7 | 0.00 | 0.00 | 0.00 | 46 | 996.5 |
| 20260504002959 | 15 | 169 | 14.5 | 22.5 | 0.00 | 0.00 | 0.00 | 47 | 996.5 |
| 20260504002458 | 15 | 175 | 14.5 | 22.5 | 0.00 | 0.00 | 0.00 | 47 | 996.5 |
| 20260504001958 | 16 | 163 | 12.9 | 20.9 | 0.00 | 0.00 | 0.00 | 47 | 996.4 |
| 20260504001458 | 15 | 161 | 17.7 | 25.7 | 0.00 | 0.00 | 0.00 | 47 | 996.5 |
| 20260504000957 | 15 | 149 | 12.9 | 16.1 | 0.00 | 0.00 | 0.00 | 49 | 996.7 |
| 20260504000457 | 15 | 146 | 14.5 | 17.7 | 0.00 | 0.00 | 0.00 | 49 | 996.6 |
| 20260503235957 | 15 | 149 | 14.5 | 17.7 | 0.00 | 0.00 | 0.00 | 49 | 996.7 |
| 20260503235457 | 15 | 145 | 12.9 | 16.1 | 0.00 | 0.00 | 0.00 | 49 | 996.7 |
| 20260503234956 | 15 | 151 | 16.1 | 17.7 | 0.00 | 0.00 | 0.00 | 49 | 996.9 |
| 20260503234456 | 15 | 164 | 12.9 | 17.7 | 0.00 | 0.00 | 0.00 | 48 | 996.8 |
| 20260503233954 | 15 | 146 | 14.5 | 22.5 | 0.00 | 0.00 | 0.00 | 48 | 996.9 |
| 20260503233454 | 15 | 158 | 11.3 | 16.1 | 0.00 | 0.00 | 0.00 | 49 | 996.8 |
| 20260503232954 | 15 | 141 | 11.3 | 14.5 | 0.00 | 0.00 | 0.00 | 48 | 996.9 |
| 20260503232454 | 16 | 141 | 9.7 | 20.9 | 0.00 | 0.00 | 0.00 | 47 | 996.9 |
| 20260503231953 | 15 | 130 | 12.9 | 16.1 | 0.00 | 0.00 | 0.00 | 48 | 997.0 |
| 20260503231453 | 15 | 154 | 14.5 | 16.1 | 0.00 | 0.00 | 0.00 | 48 | 997.0 |
| 20260503230952 | 16 | 140 | 11.3 | 16.1 | 0.00 | 0.00 | 0.00 | 47 | 997.0 |
| 20260503230452 | 16 | 163 | 12.9 | 17.7 | 0.00 | 0.00 | 0.00 | 47 | 997.1 |
| 20260503225950 | 16 | 163 | 9.7 | 12.9 | 0.00 | 0.00 | 0.00 | 47 | 997.1 |
| 20260503225450 | 16 | 163 | 11.3 | 12.9 | 0.00 | 0.00 | 0.00 | 47 | 997.3 |
| 20260503224950 | 16 | 153 | 12.9 | 14.5 | 0.00 | 0.00 | 0.00 | 46 | 997.0 |
| 20260503224449 | 16 | 118 | 11.3 | 14.5 | 0.00 | 0.00 | 0.00 | 45 | 997.1 |
| 20260503223949 | 17 | 165 | 11.3 | 14.5 | 0.00 | 0.00 | 0.00 | 45 | 997.3 |
| 20260503223449 | 17 | 189 | 12.9 | 17.7 | 0.00 | 0.00 | 0.00 | 44 | 997.2 |
| 20260503222948 | 17 | 144 | 14.5 | 22.5 | 0.00 | 0.00 | 0.00 | 44 | 997.2 |
| 20260503222448 | 17 | 152 | 19.3 | 22.5 | 0.00 | 0.00 | 0.00 | 44 | 997.1 |
| 20260503221947 | 17 | 153 | 16.1 | 20.9 | 0.00 | 0.00 | 0.00 | 44 | 997.4 |
| 20260503221446 | 17 | 145 | 9.7 | 16.1 | 0.00 | 0.00 | 0.00 | 44 | 997.2 |
| 20260503220946 | 17 | 148 | 14.5 | 16.1 | 0.00 | 0.00 | 0.00 | 44 | 997.3 |
| 20260503220444 | 17 | 152 | 14.5 | 16.1 | 0.00 | 0.00 | 0.00 | 43 | 997.3 |
| 20260503215944 | 17 | 220 | 8.0 | 16.1 | 0.00 | 0.00 | 0.00 | 43 | 997.4 |
| 20260503215444 | 17 | 92 | 8.0 | 16.1 | 0.00 | 0.00 | 0.00 | 43 | 997.1 |
| 20260503214944 | 17 | 156 | 12.9 | 17.7 | 0.00 | 0.00 | 0.00 | 43 | 997.4 |
| 20260503214443 | 17 | 274 | 6.4 | 16.1 | 0.00 | 0.00 | 0.00 | 43 | 997.4 |
| 20260503213942 | 17 | 202 | 8.0 | 14.5 | 0.00 | 0.00 | 0.00 | 42 | 997.3 |
| 20260503213442 | 17 | 181 | 8.0 | 12.9 | 0.00 | 0.00 | 0.00 | 42 | 997.5 |
| 20260503212942 | 18 | 180 | 6.4 | 11.3 | 0.00 | 0.00 | 0.00 | 42 | 997.4 |
| 20260503212441 | 18 | 211 | 4.8 | 14.5 | 0.00 | 0.00 | 0.00 | 42 | 997.3 |
| 20260503211941 | 18 | 216 | 12.9 | 14.5 | 0.00 | 0.00 | 0.00 | 42 | 997.3 |
| 20260503210937 | 18 | 111 | 4.8 | 8.0 | 0.00 | 0.00 | 0.00 | 42 | 997.4 |
| 20260503210437 | 18 | 151 | 8.0 | 9.7 | 0.00 | 0.00 | 0.00 | 41 | 997.6 |
| 20260503205937 | 18 | 141 | 4.8 | 11.3 | 0.00 | 0.00 | 0.00 | 41 | 997.6 |
| 20260503205436 | 18 | 222 | 6.4 | 12.9 | 0.00 | 0.00 | 0.00 | 41 | 997.7 |
| 20260503204935 | 18 | 149 | 9.7 | 14.5 | 0.00 | 0.00 | 0.00 | 40 | 997.6 |
| 20260503204434 | 18 | 158 | 8.0 | 16.1 | 0.00 | 0.00 | 0.00 | 40 | 997.5 |
| 20260503203934 | 18 | 238 | 9.7 | 16.1 | 0.00 | 0.00 | 0.00 | 40 | 997.5 |
| 20260503203433 | 19 | 161 | 12.9 | 17.7 | 0.00 | 0.00 | 0.00 | 39 | 997.5 |
| 20260503202934 | 19 | 232 | 11.3 | 16.1 | 0.00 | 0.00 | 0.00 | 39 | 997.7 |
| 20260503202432 | 19 | 173 | 11.3 | 20.9 | 0.00 | 0.00 | 0.00 | 39 | 997.6 |
| 20260503201931 | 19 | 205 | 9.7 | 20.9 | 0.00 | 0.00 | 0.00 | 39 | 997.5 |
| 20260503201431 | 20 | 178 | 16.1 | 22.5 | 0.00 | 0.00 | 0.00 | 39 | 997.6 |
| 20260503200931 | 20 | 180 | 14.5 | 20.9 | 0.00 | 0.00 | 0.00 | 38 | 997.5 |
| 20260503200430 | 20 | 166 | 14.5 | 20.9 | 0.00 | 0.00 | 0.00 | 38 | 997.3 |
| 20260503195929 | 20 | 149 | 8.0 | 24.1 | 0.00 | 0.00 | 0.00 | 38 | 997.5 |
| 20260503195429 | 20 | 245 | 9.7 | 27.4 | 0.00 | 0.00 | 0.00 | 38 | 997.4 |
| 20260503194929 | 20 | 167 | 8.0 | 17.7 | 0.00 | 0.00 | 0.00 | 38 | 997.7 |
| 20260503194428 | 20 | 165 | 12.9 | 17.7 | 0.00 | 0.00 | 0.00 | 38 | 997.4 |
| 20260503193917 | 20 | 172 | 12.9 | 25.7 | 0.00 | 0.00 | 0.00 | 37 | 997.4 |
| 20260503193417 | 20 | 118 | 9.7 | 22.5 | 0.00 | 0.00 | 0.00 | 37 | 997.3 |
| 20260503192916 | 20 | 245 | 17.7 | 22.5 | 0.00 | 0.00 | 0.00 | 37 | 997.4 |
| 20260503192416 | 20 | 184 | 9.7 | 16.1 | 0.00 | 0.00 | 0.00 | 36 | 997.3 |
| 20260503191905 | 20 | 271 | 9.7 | 16.1 | 0.00 | 0.00 | 0.00 | 36 | 997.3 |
| 20260503191405 | 21 | 155 | 6.4 | 14.5 | 0.00 | 0.00 | 0.00 | 35 | 997.2 |
| 20260503190903 | 21 | 7 | 8.0 | 16.1 | 0.00 | 0.00 | 0.00 | 34 | 997.4 |
| 20260503190403 | 21 | 178 | 6.4 | 16.1 | 0.00 | 0.00 | 0.00 | 34 | 997.3 |
| 20260503185903 | 21 | 161 | 12.9 | 14.5 | 0.00 | 0.00 | 0.00 | 33 | 997.2 |
| 20260503185402 | 21 | 164 | 12.9 | 12.9 | 0.00 | 0.00 | 0.00 | 32 | 997.2 |
| 20260503184901 | 22 | 205 | 4.8 | 16.1 | 0.00 | 0.00 | 0.00 | 32 | 997.3 |
| 20260503184400 | 22 | 162 | 14.5 | 17.7 | 0.00 | 0.00 | 0.00 | 31 | 997.1 |
| 20260503183900 | 22 | 132 | 8.0 | 17.7 | 0.00 | 0.00 | 0.00 | 30 | 997.0 |
| 20260503183359 | 22 | 80 | 9.7 | 16.1 | 0.00 | 0.00 | 0.00 | 30 | 996.9 |
| 20260503182859 | 22 | 220 | 9.7 | 11.3 | 0.00 | 0.00 | 0.00 | 30 | 996.9 |
| 20260503182358 | 23 | 201 | 12.9 | 16.1 | 0.00 | 0.00 | 0.00 | 29 | 996.9 |
| 20260503181858 | 23 | 48 | 9.7 | 17.7 | 0.00 | 0.00 | 0.00 | 29 | 996.7 |
| 20260503181357 | 23 | 118 | 3.2 | 11.3 | 0.00 | 0.00 | 0.00 | 30 | 996.8 |
| 20260503180857 | 23 | 151 | 8.0 | 14.5 | 0.00 | 0.00 | 0.00 | 30 | 996.9 |
| 20260503180356 | 23 | 216 | 9.7 | 14.5 | 0.00 | 0.00 | 0.00 | 29 | 996.8 |
| 20260503175854 | 23 | 252 | 6.4 | 17.7 | 0.00 | 0.00 | 0.00 | 30 | 996.7 |
| 20260503175354 | 23 | 191 | 6.4 | 12.9 | 0.00 | 0.00 | 0.00 | 29 | 996.8 |
| 20260503174853 | 24 | 205 | 9.7 | 16.1 | 0.00 | 0.00 | 0.00 | 29 | 996.7 |
| 20260503174352 | 24 | 201 | 6.4 | 12.9 | 0.00 | 0.00 | 0.00 | 29 | 996.5 |
| 20260503173852 | 24 | 208 | 8.0 | 12.9 | 0.00 | 0.00 | 0.00 | 29 | 996.6 |
| 20260503173352 | 25 | 260 | 8.0 | 14.5 | 0.00 | 0.00 | 0.00 | 28 | 996.6 |
| 20260503172851 | 25 | 216 | 8.0 | 11.3 | 0.00 | 0.00 | 0.00 | 28 | 996.8 |
| 20260503172351 | 25 | 197 | 11.3 | 20.9 | 0.00 | 0.00 | 0.00 | 27 | 996.7 |
| 20260503171850 | 25 | 143 | 12.9 | 16.1 | 0.00 | 0.00 | 0.00 | 27 | 996.7 |
| 20260503171348 | 25 | 186 | 4.8 | 17.7 | 0.00 | 0.00 | 0.00 | 27 | 996.7 |
| 20260503170348 | 25 | 224 | 8.0 | 16.1 | 0.00 | 0.00 | 0.00 | 27 | 996.6 |
| 20260503150838 | 26 | 245 | 16.1 | 17.7 | 0.00 | 0.00 | 0.00 | 26 | 997.0 |
| 20260503150337 | 26 | 160 | 17.7 | 27.4 | 0.00 | 0.00 | 0.00 | 26 | 997.2 |
| 20260503131326 | 26 | 244 | 17.7 | 33.8 | 0.00 | 0.00 | 0.00 | 24 | 998.7 |
| 20260503130825 | 25 | 184 | 9.7 | 25.7 | 0.00 | 0.00 | 0.00 | 25 | 998.5 |
| 20260503130325 | 25 | 54 | 9.7 | 40.2 | 0.00 | 0.00 | 0.00 | 24 | 998.6 |
| 20260503110808 | 25 | 231 | 9.7 | 16.1 | 0.00 | 0.00 | 0.00 | 25 | 999.7 |
| 20260503110307 | 25 | 160 | 19.3 | 25.7 | 0.00 | 0.00 | 0.00 | 25 | 999.6 |